Time,TemperatureF,DewpointF,PressureIn,WindDirection,WindDirectionDegrees,WindSpeedMPH,WindSpeedGustMPH,Humidity,HourlyPrecipIn,Conditions,Clouds,dailyrainin,SoftwareType,DateUTC
2013-11-20 00:01:00,39.0,24.6,30.35,North,0,8.0,8.0,56,0.00,,,0.00,VWS V13.00,2013-11-20 05:01:00,
2013-11-20 00:02:00,39.0,24.6,30.35,NNW,338,9.8,9.8,56,0.00,,,0.00,VWS V13.00,2013-11-20 05:02:00,
2013-11-20 00:07:00,39.0,24.6,30.36,NNW,338,9.8,9.8,56,0.00,,,0.00,VWS V13.00,2013-11-20 05:07:00,
2013-11-20 00:12:00,39.0,24.6,30.36,NNW,338,6.9,9.8,56,0.00,,,0.00,VWS V13.00,2013-11-20 05:12:00,
2013-11-20 00:17:00,39.0,24.6,30.36,NNW,338,7.6,9.8,56,0.00,,,0.00,VWS V13.00,2013-11-20 05:17:00,
2013-11-20 00:22:00,39.0,24.6,30.36,NNW,338,8.5,8.5,56,0.00,,,0.00,VWS V13.00,2013-11-20 05:22:00,
2013-11-20 00:27:00,39.0,24.6,30.35,WNW,292,11.6,12.5,56,0.00,,,0.00,VWS V13.00,2013-11-20 05:27:00,
2013-11-20 00:32:00,39.0,24.6,30.35,North,0,2.0,12.5,56,0.00,,,0.00,VWS V13.00,2013-11-20 05:32:00,
2013-11-20 00:37:00,38.8,24.9,30.36,NW,315,7.3,12.5,57,0.00,,,0.00,VWS V13.00,2013-11-20 05:37:00,
2013-11-20 00:42:00,38.8,24.9,30.35,North,0,7.3,7.3,57,0.00,,,0.00,VWS V13.00,2013-11-20 05:42:00,
2013-11-20 00:47:00,38.8,24.9,30.36,NNW,338,9.8,12.9,57,0.00,,,0.00,VWS V13.00,2013-11-20 05:47:00,
2013-11-20 00:52:00,38.8,24.5,30.36,NNW,338,7.3,12.9,56,0.00,,,0.00,VWS V13.00,2013-11-20 05:52:00,
2013-11-20 00:57:00,38.4,24.5,30.36,WSW,248,5.3,12.9,57,0.00,,,0.00,VWS V13.00,2013-11-20 05:57:00,
2013-11-20 01:02:00,38.4,24.5,30.36,NW,315,8.9,8.9,57,0.00,,,0.00,VWS V13.00,2013-11-20 06:02:00,
2013-11-20 01:07:00,38.4,24.5,30.36,NNE,22,7.6,9.8,57,0.00,,,0.00,VWS V13.00,2013-11-20 06:07:00,
2013-11-20 01:12:00,38.4,24.5,30.36,North,0,2.2,9.8,57,0.00,,,0.00,VWS V13.00,2013-11-20 06:12:00,
2013-11-20 01:17:00,38.4,24.5,30.36,North,0,17.2,17.2,57,0.00,,,0.00,VWS V13.00,2013-11-20 06:17:00,
2013-11-20 01:22:00,38.6,25.1,30.36,North,0,11.8,12.3,58,0.00,,,0.00,VWS V13.00,2013-11-20 06:22:00,
2013-11-20 01:27:00,38.8,25.3,30.36,NNW,338,18.3,18.3,58,0.00,,,0.00,VWS V13.00,2013-11-20 06:27:00,
2013-11-20 01:32:00,38.8,24.9,30.36,North,0,10.2,18.3,57,0.00,,,0.00,VWS V13.00,2013-11-20 06:32:00,
2013-11-20 01:37:00,38.8,24.9,30.35,North,0,19.0,19.0,57,0.00,,,0.00,VWS V13.00,2013-11-20 06:37:00,
2013-11-20 01:42:00,38.6,24.7,30.37,North,0,13.1,13.1,57,0.00,,,0.00,VWS V13.00,2013-11-20 06:42:00,
2013-11-20 01:47:00,38.4,24.5,30.36,NNW,338,19.0,19.0,57,0.00,,,0.00,VWS V13.00,2013-11-20 06:47:00,
2013-11-20 01:52:00,38.4,24.5,30.36,WNW,292,6.7,19.0,57,0.00,,,0.00,VWS V13.00,2013-11-20 06:52:00,
2013-11-20 01:57:00,38.4,24.9,30.37,North,0,13.8,19.0,58,0.00,,,0.00,VWS V13.00,2013-11-20 06:57:00,
2013-11-20 02:02:00,38.3,24.8,30.37,NNE,22,12.3,12.7,58,0.00,,,0.00,VWS V13.00,2013-11-20 07:02:00,
2013-11-20 02:07:00,38.3,25.2,30.37,North,0,10.2,12.7,59,0.00,,,0.00,VWS V13.00,2013-11-20 07:07:00,
2013-11-20 02:12:00,38.3,25.2,30.37,North,0,10.5,12.7,59,0.00,,,0.00,VWS V13.00,2013-11-20 07:12:00,
2013-11-20 02:17:00,38.1,25.1,30.37,NNW,338,14.9,16.7,59,0.00,,,0.00,VWS V13.00,2013-11-20 07:17:00,
2013-11-20 02:22:00,38.1,25.1,30.37,NNW,338,8.9,10.7,59,0.00,,,0.00,VWS V13.00,2013-11-20 07:22:00,
2013-11-20 02:27:00,38.1,25.1,30.38,NNW,338,12.9,12.9,59,0.00,,,0.00,VWS V13.00,2013-11-20 07:27:00,
2013-11-20 02:32:00,38.1,25.5,30.38,North,0,13.4,13.4,60,0.00,,,0.00,VWS V13.00,2013-11-20 07:32:00,
2013-11-20 02:37:00,38.3,25.2,30.38,North,0,10.9,13.4,59,0.00,,,0.00,VWS V13.00,2013-11-20 07:37:00,
2013-11-20 02:42:00,38.3,25.2,30.38,NW,315,5.5,14.0,59,0.00,,,0.00,VWS V13.00,2013-11-20 07:42:00,
2013-11-20 02:47:00,38.3,25.2,30.38,NNW,338,12.3,14.0,59,0.00,,,0.00,VWS V13.00,2013-11-20 07:47:00,
2013-11-20 02:52:00,38.1,25.1,30.39,NW,315,5.8,14.0,59,0.00,,,0.00,VWS V13.00,2013-11-20 07:52:00,
2013-11-20 02:57:00,38.1,25.1,30.39,NNW,338,7.1,14.0,59,0.00,,,0.00,VWS V13.00,2013-11-20 07:57:00,
2013-11-20 03:02:00,38.1,25.1,30.39,WNW,292,4.9,15.6,59,0.00,,,0.00,VWS V13.00,2013-11-20 08:02:00,
2013-11-20 03:07:00,38.1,25.1,30.40,North,0,12.7,15.6,59,0.00,,,0.00,VWS V13.00,2013-11-20 08:07:00,
2013-11-20 03:12:00,37.9,24.9,30.40,NW,315,2.0,15.6,59,0.00,,,0.00,VWS V13.00,2013-11-20 08:12:00,
2013-11-20 03:17:00,37.9,24.9,30.40,North,0,8.2,15.6,59,0.00,,,0.00,VWS V13.00,2013-11-20 08:17:00,
2013-11-20 03:22:00,37.9,24.9,30.40,North,0,11.1,11.1,59,0.00,,,0.00,VWS V13.00,2013-11-20 08:22:00,
2013-11-20 03:27:00,37.7,24.7,30.41,North,0,8.0,13.1,59,0.00,,,0.00,VWS V13.00,2013-11-20 08:27:00,
2013-11-20 03:32:00,37.7,24.7,30.41,NNW,338,8.7,13.1,59,0.00,,,0.00,VWS V13.00,2013-11-20 08:32:00,
2013-11-20 03:37:00,37.9,24.9,30.41,NW,315,6.2,13.1,59,0.00,,,0.00,VWS V13.00,2013-11-20 08:37:00,
2013-11-20 03:42:00,37.9,24.9,30.41,NW,315,9.8,9.8,59,0.00,,,0.00,VWS V13.00,2013-11-20 08:42:00,
2013-11-20 03:47:00,37.7,24.7,30.42,WSW,248,1.5,9.8,59,0.00,,,0.00,VWS V13.00,2013-11-20 08:47:00,
2013-11-20 03:52:00,37.5,24.5,30.41,NNW,338,11.6,11.6,59,0.00,,,0.00,VWS V13.00,2013-11-20 08:52:00,
2013-11-20 03:57:00,37.5,24.5,30.41,NNW,338,11.6,11.6,59,0.00,,,0.00,VWS V13.00,2013-11-20 08:57:00,
2013-11-20 04:02:00,37.5,24.5,30.42,North,0,9.6,12.0,59,0.00,,,0.00,VWS V13.00,2013-11-20 09:02:00,
2013-11-20 04:07:00,37.5,24.5,30.42,North,0,8.5,14.9,59,0.00,,,0.00,VWS V13.00,2013-11-20 09:07:00,
2013-11-20 04:13:00,37.4,24.0,30.42,North,0,12.9,14.9,58,0.00,,,0.00,VWS V13.00,2013-11-20 09:13:00,
2013-11-20 04:18:00,37.2,24.2,30.42,NNW,338,4.4,14.9,59,0.00,,,0.00,VWS V13.00,2013-11-20 09:18:00,
2013-11-20 04:23:00,37.2,24.2,30.43,North,0,4.4,13.6,59,0.00,,,0.00,VWS V13.00,2013-11-20 09:23:00,
2013-11-20 04:28:00,37.2,24.6,30.43,North,0,12.3,14.3,60,0.00,,,0.00,VWS V13.00,2013-11-20 09:28:00,
2013-11-20 04:33:00,37.2,24.6,30.43,NW,315,12.9,14.3,60,0.00,,,0.00,VWS V13.00,2013-11-20 09:33:00,
2013-11-20 04:38:00,37.2,24.6,30.43,North,0,7.8,14.3,60,0.00,,,0.00,VWS V13.00,2013-11-20 09:38:00,
2013-11-20 04:43:00,37.2,24.6,30.43,North,0,8.7,11.8,60,0.00,,,0.00,VWS V13.00,2013-11-20 09:43:00,
2013-11-20 04:48:00,37.2,24.6,30.44,North,0,10.5,11.8,60,0.00,,,0.00,VWS V13.00,2013-11-20 09:48:00,
2013-11-20 04:53:00,37.4,25.2,30.44,WNW,292,5.8,15.8,61,0.00,,,0.00,VWS V13.00,2013-11-20 09:53:00,
2013-11-20 04:58:00,37.2,25.0,30.44,NNW,338,12.5,15.8,61,0.00,,,0.00,VWS V13.00,2013-11-20 09:58:00,
2013-11-20 05:03:00,37.2,25.0,30.44,North,0,2.9,2.9,61,0.00,,,0.00,VWS V13.00,2013-11-20 10:03:00,
2013-11-20 05:08:00,37.0,24.8,30.44,NNW,338,4.9,6.4,61,0.00,,,0.00,VWS V13.00,2013-11-20 10:08:00,
2013-11-20 05:13:00,37.0,24.8,30.44,NNW,338,8.0,9.1,61,0.00,,,0.00,VWS V13.00,2013-11-20 10:13:00,
2013-11-20 05:18:00,37.0,25.2,30.44,WNW,292,6.0,11.4,62,0.00,,,0.00,VWS V13.00,2013-11-20 10:18:00,
2013-11-20 05:23:00,37.0,25.2,30.45,NNW,338,12.0,12.0,62,0.00,,,0.00,VWS V13.00,2013-11-20 10:23:00,
2013-11-20 05:28:00,37.0,25.2,30.45,North,0,9.8,12.0,62,0.00,,,0.00,VWS V13.00,2013-11-20 10:28:00,
2013-11-20 05:33:00,37.2,25.4,30.45,North,0,6.7,12.0,62,0.00,,,0.00,VWS V13.00,2013-11-20 10:33:00,
2013-11-20 05:38:00,37.2,25.4,30.45,North,0,4.4,12.0,62,0.00,,,0.00,VWS V13.00,2013-11-20 10:38:00,
2013-11-20 05:43:00,37.2,25.4,30.45,North,0,8.0,9.3,62,0.00,,,0.00,VWS V13.00,2013-11-20 10:43:00,
2013-11-20 05:48:00,37.2,25.4,30.46,NNW,338,8.0,14.0,62,0.00,,,0.00,VWS V13.00,2013-11-20 10:48:00,
2013-11-20 05:53:00,37.2,25.4,30.46,NW,315,9.8,14.0,62,0.00,,,0.00,VWS V13.00,2013-11-20 10:53:00,
2013-11-20 05:58:00,37.2,25.0,30.45,North,0,20.5,20.5,61,0.00,,,0.00,VWS V13.00,2013-11-20 10:58:00,
2013-11-20 06:03:00,37.2,25.0,30.46,North,0,16.3,16.3,61,0.00,,,0.00,VWS V13.00,2013-11-20 11:03:00,
2013-11-20 06:08:00,37.2,25.0,30.46,NNW,338,12.5,16.3,61,0.00,,,0.00,VWS V13.00,2013-11-20 11:08:00,
2013-11-20 06:13:00,37.2,25.0,30.47,NNW,338,8.9,16.3,61,0.00,,,0.00,VWS V13.00,2013-11-20 11:13:00,
2013-11-20 06:18:00,37.2,25.0,30.47,North,0,2.0,16.3,61,0.00,,,0.00,VWS V13.00,2013-11-20 11:18:00,
2013-11-20 06:23:00,37.0,25.2,30.47,NNE,22,4.4,4.4,62,0.00,,,0.00,VWS V13.00,2013-11-20 11:23:00,
2013-11-20 06:28:00,37.0,24.8,30.48,NNE,22,4.4,7.1,61,0.00,,,0.00,VWS V13.00,2013-11-20 11:28:00,
2013-11-20 06:33:00,36.6,24.4,30.48,North,0,4.2,7.1,61,0.00,,,0.00,VWS V13.00,2013-11-20 11:33:00,
2013-11-20 06:38:00,36.6,24.8,30.48,SSE,158,4.9,10.2,62,0.00,,,0.00,VWS V13.00,2013-11-20 11:38:00,
2013-11-20 06:43:00,36.6,24.4,30.48,WNW,292,4.0,14.0,61,0.00,,,0.00,VWS V13.00,2013-11-20 11:43:00,
2013-11-20 06:48:00,36.6,24.8,30.48,NNE,22,10.5,14.0,62,0.00,,,0.00,VWS V13.00,2013-11-20 11:48:00,
2013-11-20 06:53:00,36.5,24.3,30.48,NW,315,2.6,14.0,61,0.00,,,0.00,VWS V13.00,2013-11-20 11:53:00,
2013-11-20 06:58:00,36.5,24.7,30.48,NNW,338,11.1,14.0,62,0.00,,,0.00,VWS V13.00,2013-11-20 11:58:00,
2013-11-20 07:03:00,36.6,24.8,30.48,NNW,338,6.9,11.4,62,0.00,,,0.00,VWS V13.00,2013-11-20 12:03:00,
2013-11-20 07:09:00,36.6,24.8,30.48,North,0,5.1,13.1,62,0.00,,,0.00,VWS V13.00,2013-11-20 12:09:00,
2013-11-20 07:14:00,36.6,24.8,30.49,WNW,292,6.2,13.1,62,0.00,,,0.00,VWS V13.00,2013-11-20 12:14:00,
2013-11-20 07:19:00,36.6,24.8,30.49,NNW,338,16.5,16.5,62,0.00,,,0.00,VWS V13.00,2013-11-20 12:19:00,
2013-11-20 07:24:00,36.8,25.0,30.50,NNW,338,10.9,16.5,62,0.00,,,0.00,VWS V13.00,2013-11-20 12:24:00,
2013-11-20 07:29:00,36.8,25.0,30.50,North,0,7.8,16.5,62,0.00,,,0.00,VWS V13.00,2013-11-20 12:29:00,
2013-11-20 07:34:00,36.8,25.0,30.50,NNW,338,8.0,16.5,62,0.00,,,0.00,VWS V13.00,2013-11-20 12:34:00,
2013-11-20 07:39:00,36.8,25.0,30.50,West,270,2.4,16.5,62,0.00,,,0.00,VWS V13.00,2013-11-20 12:39:00,
2013-11-20 07:44:00,36.8,25.0,30.50,NNW,338,11.1,11.1,62,0.00,,,0.00,VWS V13.00,2013-11-20 12:44:00,
2013-11-20 07:49:00,37.0,25.2,30.51,NNE,22,2.9,11.6,62,0.00,,,0.00,VWS V13.00,2013-11-20 12:49:00,
2013-11-20 07:54:00,37.0,25.2,30.51,North,0,8.0,11.6,62,0.00,,,0.00,VWS V13.00,2013-11-20 12:54:00,
2013-11-20 07:59:00,37.2,25.4,30.51,NNE,22,4.9,11.6,62,0.00,,,0.00,VWS V13.00,2013-11-20 12:59:00,
2013-11-20 08:04:00,37.2,25.4,30.50,North,0,9.6,9.6,62,0.00,,,0.00,VWS V13.00,2013-11-20 13:04:00,
2013-11-20 08:09:00,37.2,25.4,30.51,North,0,8.2,9.6,62,0.00,,,0.00,VWS V13.00,2013-11-20 13:09:00,
2013-11-20 08:14:00,37.4,25.6,30.51,North,0,4.0,9.6,62,0.00,,,0.00,VWS V13.00,2013-11-20 13:14:00,
2013-11-20 08:19:00,37.7,25.9,30.51,North,0,5.8,9.6,62,0.00,,,0.00,VWS V13.00,2013-11-20 13:19:00,
2013-11-20 08:24:00,39.3,27.0,30.51,WNW,292,6.0,6.0,61,0.00,,,0.00,VWS V13.00,2013-11-20 13:24:00,
2013-11-20 08:29:00,43.1,29.3,30.51,North,0,3.8,12.3,58,0.00,,,0.00,VWS V13.00,2013-11-20 13:29:00,
2013-11-20 08:34:00,43.5,28.0,30.51,North,0,8.9,12.3,54,0.00,,,0.00,VWS V13.00,2013-11-20 13:34:00,
2013-11-20 08:40:00,42.4,27.0,30.52,NE,45,3.3,12.3,54,0.00,,,0.00,VWS V13.00,2013-11-20 13:40:00,
2013-11-20 08:45:00,41.3,26.4,30.52,North,0,12.5,12.5,55,0.00,,,0.00,VWS V13.00,2013-11-20 13:45:00,
2013-11-20 08:50:00,40.8,26.3,30.52,NNW,338,4.4,12.5,56,0.00,,,0.00,VWS V13.00,2013-11-20 13:50:00,
2013-11-20 08:55:00,41.0,26.5,30.52,NNW,338,8.9,12.5,56,0.00,,,0.00,VWS V13.00,2013-11-20 13:55:00,
2013-11-20 09:00:00,41.3,26.8,30.53,NNW,338,6.0,12.5,56,0.00,,,0.00,VWS V13.00,2013-11-20 14:00:00,
2013-11-20 09:05:00,41.5,27.0,30.53,NNW,338,9.8,9.8,56,0.00,,,0.00,VWS V13.00,2013-11-20 14:05:00,
2013-11-20 09:10:00,41.3,26.4,30.53,NNW,338,6.2,9.8,55,0.00,,,0.00,VWS V13.00,2013-11-20 14:10:00,
2013-11-20 09:15:00,41.1,26.2,30.53,NNE,22,6.9,9.8,55,0.00,,,0.00,VWS V13.00,2013-11-20 14:15:00,
2013-11-20 09:20:00,41.5,27.0,30.53,NE,45,5.8,5.8,56,0.00,,,0.00,VWS V13.00,2013-11-20 14:20:00,
2013-11-20 09:25:00,43.1,28.0,30.53,NNW,338,6.9,6.9,55,0.00,,,0.00,VWS V13.00,2013-11-20 14:25:00,
2013-11-20 09:30:00,44.4,28.8,30.53,NW,315,4.9,6.9,54,0.00,,,0.00,VWS V13.00,2013-11-20 14:30:00,
2013-11-20 09:35:00,46.0,29.8,30.54,North,0,12.0,12.0,53,0.00,,,0.00,VWS V13.00,2013-11-20 14:35:00,
2013-11-20 09:40:00,48.5,30.7,30.53,NNE,22,6.2,6.2,50,0.00,,,0.00,VWS V13.00,2013-11-20 14:40:00,
2013-11-20 09:45:00,51.0,32.0,30.53,NNW,338,5.3,10.2,48,0.00,,,0.00,VWS V13.00,2013-11-20 14:45:00,
2013-11-20 09:50:00,51.0,31.0,30.53,North,0,7.1,10.2,46,0.00,,,0.00,VWS V13.00,2013-11-20 14:50:00,
2013-11-20 09:55:00,48.5,29.2,30.54,NNW,338,4.6,10.2,47,0.00,,,0.00,VWS V13.00,2013-11-20 14:55:00,
2013-11-20 10:00:00,47.1,27.9,30.54,North,0,6.2,6.2,47,0.00,,,0.00,VWS V13.00,2013-11-20 15:00:00,
2013-11-20 10:05:00,46.0,27.4,30.53,NW,315,7.6,7.6,48,0.00,,,0.00,VWS V13.00,2013-11-20 15:05:00,
2013-11-20 10:10:00,44.9,26.9,30.54,North,0,5.5,11.8,49,0.00,,,0.00,VWS V13.00,2013-11-20 15:10:00,
2013-11-20 10:15:00,44.0,26.6,30.54,NNW,338,7.1,11.8,50,0.00,,,0.00,VWS V13.00,2013-11-20 15:15:00,
2013-11-20 10:20:00,43.3,26.4,30.54,NW,315,5.8,5.8,51,0.00,,,0.00,VWS V13.00,2013-11-20 15:20:00,
2013-11-20 10:25:00,42.6,26.7,30.54,North,0,3.3,9.1,53,0.00,,,0.00,VWS V13.00,2013-11-20 15:25:00,
2013-11-20 10:30:00,42.6,26.7,30.54,North,0,4.6,12.9,53,0.00,,,0.00,VWS V13.00,2013-11-20 15:30:00,
2013-11-20 10:35:00,42.6,27.1,30.54,NNW,338,9.8,12.9,54,0.00,,,0.00,VWS V13.00,2013-11-20 15:35:00,
2013-11-20 10:40:00,42.8,27.3,30.54,NNW,338,5.1,5.1,54,0.00,,,0.00,VWS V13.00,2013-11-20 15:40:00,
2013-11-20 10:45:00,42.9,27.4,30.54,NNW,338,1.3,9.1,54,0.00,,,0.00,VWS V13.00,2013-11-20 15:45:00,
2013-11-20 10:50:00,43.3,28.2,30.54,NNW,338,4.2,9.1,55,0.00,,,0.00,VWS V13.00,2013-11-20 15:50:00,
2013-11-20 10:55:00,43.5,28.9,30.54,South,180,3.1,9.1,56,0.00,,,0.00,VWS V13.00,2013-11-20 15:55:00,
2013-11-20 11:00:00,44.0,29.3,30.53,SSW,202,9.1,9.1,56,0.00,,,0.00,VWS V13.00,2013-11-20 16:00:00,
2013-11-20 11:05:00,44.2,29.1,30.54,NNE,22,4.6,9.1,55,0.00,,,0.00,VWS V13.00,2013-11-20 16:05:00,
2013-11-20 11:10:00,44.7,29.1,30.54,West,270,1.5,9.1,54,0.00,,,0.00,VWS V13.00,2013-11-20 16:10:00,
2013-11-20 11:16:00,46.0,30.3,30.53,West,270,3.5,9.1,54,0.00,,,0.00,VWS V13.00,2013-11-20 16:16:00,
2013-11-20 11:21:00,48.5,31.2,30.54,SE,135,6.2,6.2,51,0.00,,,0.00,VWS V13.00,2013-11-20 16:21:00,
2013-11-20 11:26:00,51.9,31.8,30.53,SW,225,2.9,6.2,46,0.00,,,0.00,VWS V13.00,2013-11-20 16:26:00,
2013-11-20 11:31:00,53.7,31.8,30.53,NW,315,3.3,6.4,43,0.00,,,0.00,VWS V13.00,2013-11-20 16:31:00,
2013-11-20 11:36:00,54.6,32.0,30.54,East,90,8.0,8.5,42,0.00,,,0.00,VWS V13.00,2013-11-20 16:36:00,
2013-11-20 11:41:00,55.5,32.2,30.53,NW,315,5.1,5.1,41,0.00,,,0.00,VWS V13.00,2013-11-20 16:41:00,
2013-11-20 11:46:00,56.3,32.3,30.53,North,0,7.3,7.3,40,0.00,,,0.00,VWS V13.00,2013-11-20 16:46:00,
2013-11-20 11:51:00,56.4,31.8,30.53,NE,45,4.9,7.3,39,0.00,,,0.00,VWS V13.00,2013-11-20 16:51:00,
2013-11-20 11:56:00,56.4,32.4,30.53,South,180,2.4,7.3,40,0.00,,,0.00,VWS V13.00,2013-11-20 16:56:00,
2013-11-20 12:01:00,56.3,31.7,30.53,East,90,9.6,9.6,39,0.00,,,0.00,VWS V13.00,2013-11-20 17:01:00,
2013-11-20 12:06:00,55.9,31.3,30.53,NNE,22,12.7,12.7,39,0.00,,,0.00,VWS V13.00,2013-11-20 17:06:00,
2013-11-20 12:11:00,55.4,31.5,30.53,NNE,22,4.9,12.7,40,0.00,,,0.00,VWS V13.00,2013-11-20 17:11:00,
2013-11-20 12:16:00,56.3,31.7,30.53,ENE,68,5.8,12.7,39,0.00,,,0.00,VWS V13.00,2013-11-20 17:16:00,
2013-11-20 12:21:00,55.5,31.0,30.53,NNW,338,10.0,10.0,39,0.00,,,0.00,VWS V13.00,2013-11-20 17:21:00,
2013-11-20 12:26:00,54.6,30.2,30.53,West,270,3.5,10.0,39,0.00,,,0.00,VWS V13.00,2013-11-20 17:26:00,
2013-11-20 12:31:00,53.9,30.1,30.53,NW,315,5.8,10.0,40,0.00,,,0.00,VWS V13.00,2013-11-20 17:31:00,
2013-11-20 12:36:00,53.0,30.0,30.54,WNW,292,4.4,11.1,41,0.00,,,0.00,VWS V13.00,2013-11-20 17:36:00,
2013-11-20 12:41:00,53.2,30.7,30.53,NNW,338,3.8,3.8,42,0.00,,,0.00,VWS V13.00,2013-11-20 17:41:00,
2013-11-20 12:46:00,53.4,30.3,30.53,NNW,338,6.7,10.5,41,0.00,,,0.00,VWS V13.00,2013-11-20 17:46:00,
2013-11-20 12:51:00,53.2,30.7,30.53,North,0,9.1,10.5,42,0.00,,,0.00,VWS V13.00,2013-11-20 17:51:00,
2013-11-20 12:56:00,53.2,30.7,30.53,ENE,68,6.2,10.5,42,0.00,,,0.00,VWS V13.00,2013-11-20 17:56:00,
2013-11-20 13:01:00,53.0,30.0,30.52,East,90,4.6,4.6,41,0.00,,,0.00,VWS V13.00,2013-11-20 18:01:00,
2013-11-20 13:06:00,52.3,29.9,30.53,NNW,338,12.7,12.7,42,0.00,,,0.00,VWS V13.00,2013-11-20 18:06:00,
2013-11-20 13:11:00,52.3,29.9,30.53,NNE,22,0.0,12.7,42,0.00,,,0.00,VWS V13.00,2013-11-20 18:11:00,
2013-11-20 13:16:00,51.9,30.1,30.53,NE,45,1.5,12.7,43,0.00,,,0.00,VWS V13.00,2013-11-20 18:16:00,
2013-11-20 13:21:00,52.1,30.3,30.53,ESE,112,1.3,1.3,43,0.00,,,0.00,VWS V13.00,2013-11-20 18:21:00,
2013-11-20 13:26:00,51.8,30.0,30.53,NW,315,3.3,6.4,43,0.00,,,0.00,VWS V13.00,2013-11-20 18:26:00,
2013-11-20 13:31:00,51.4,29.7,30.53,SSW,202,5.8,6.4,43,0.00,,,0.00,VWS V13.00,2013-11-20 18:31:00,
2013-11-20 13:36:00,51.4,30.2,30.53,SE,135,5.3,6.4,44,0.00,,,0.00,VWS V13.00,2013-11-20 18:36:00,
2013-11-20 13:41:00,51.0,29.9,30.53,SW,225,4.0,4.0,44,0.00,,,0.00,VWS V13.00,2013-11-20 18:41:00,
2013-11-20 13:46:00,50.7,29.6,30.53,SSW,202,1.7,4.6,44,0.00,,,0.00,VWS V13.00,2013-11-20 18:46:00,
2013-11-20 13:51:00,50.5,29.4,30.52,NNE,22,2.4,4.6,44,0.00,,,0.00,VWS V13.00,2013-11-20 18:51:00,
2013-11-20 13:57:00,50.1,29.6,30.52,NNE,22,11.1,11.1,45,0.00,,,0.00,VWS V13.00,2013-11-20 18:57:00,
2013-11-20 14:02:00,50.0,29.5,30.52,NE,45,3.5,3.5,45,0.00,,,0.00,VWS V13.00,2013-11-20 19:02:00,
2013-11-20 14:07:00,49.8,29.9,30.52,East,90,3.3,3.8,46,0.00,,,0.00,VWS V13.00,2013-11-20 19:07:00,
2013-11-20 14:12:00,49.1,29.2,30.52,NE,45,10.0,10.0,46,0.00,,,0.00,VWS V13.00,2013-11-20 19:12:00,
2013-11-20 14:17:00,48.7,29.4,30.51,NE,45,10.2,10.2,47,0.00,,,0.00,VWS V13.00,2013-11-20 19:17:00,
2013-11-20 14:22:00,48.5,29.7,30.52,WSW,248,1.3,1.3,48,0.00,,,0.00,VWS V13.00,2013-11-20 19:22:00,
2013-11-20 14:27:00,48.3,29.0,30.52,North,0,9.8,9.8,47,0.00,,,0.00,VWS V13.00,2013-11-20 19:27:00,
2013-11-20 14:32:00,48.3,29.0,30.52,North,0,0.0,11.6,47,0.00,,,0.00,VWS V13.00,2013-11-20 19:32:00,
2013-11-20 14:37:00,48.0,28.8,30.52,ESE,112,3.5,11.6,47,0.00,,,0.00,VWS V13.00,2013-11-20 19:37:00,
2013-11-20 14:42:00,48.0,28.8,30.52,NNW,338,1.1,4.4,47,0.00,,,0.00,VWS V13.00,2013-11-20 19:42:00,
2013-11-20 14:47:00,47.8,29.1,30.52,East,90,4.2,4.4,48,0.00,,,0.00,VWS V13.00,2013-11-20 19:47:00,
2013-11-20 14:52:00,47.4,28.7,30.52,NW,315,5.8,5.8,48,0.00,,,0.00,VWS V13.00,2013-11-20 19:52:00,
2013-11-20 14:57:00,47.4,28.7,30.52,NNW,338,10.2,10.2,48,0.00,,,0.00,VWS V13.00,2013-11-20 19:57:00,
2013-11-20 15:02:00,47.3,28.6,30.52,SW,225,4.6,4.6,48,0.00,,,0.00,VWS V13.00,2013-11-20 20:02:00,
2013-11-20 15:07:00,46.9,28.2,30.52,SE,135,3.1,5.1,48,0.00,,,0.00,VWS V13.00,2013-11-20 20:07:00,
2013-11-20 15:12:00,46.5,28.4,30.52,ENE,68,2.9,5.1,49,0.00,,,0.00,VWS V13.00,2013-11-20 20:12:00,
2013-11-20 15:17:00,46.5,28.9,30.52,ENE,68,3.8,5.1,50,0.00,,,0.00,VWS V13.00,2013-11-20 20:17:00,
2013-11-20 15:22:00,46.5,28.9,30.53,North,0,5.1,5.8,50,0.00,,,0.00,VWS V13.00,2013-11-20 20:22:00,
2013-11-20 15:27:00,46.4,28.8,30.53,NNE,22,6.9,6.9,50,0.00,,,0.00,VWS V13.00,2013-11-20 20:27:00,
2013-11-20 15:32:00,46.5,28.9,30.52,NNE,22,0.0,6.9,50,0.00,,,0.00,VWS V13.00,2013-11-20 20:32:00,
2013-11-20 15:37:00,46.2,28.6,30.52,NNW,338,3.8,7.3,50,0.00,,,0.00,VWS V13.00,2013-11-20 20:37:00,
2013-11-20 15:42:00,46.0,28.4,30.52,NNE,22,3.1,4.4,50,0.00,,,0.00,VWS V13.00,2013-11-20 20:42:00,
2013-11-20 15:47:00,45.6,28.5,30.52,North,0,5.1,6.7,51,0.00,,,0.00,VWS V13.00,2013-11-20 20:47:00,
2013-11-20 15:52:00,45.5,28.4,30.53,NNW,338,7.3,7.3,51,0.00,,,0.00,VWS V13.00,2013-11-20 20:52:00,
2013-11-20 15:57:00,45.1,28.5,30.53,NNE,22,0.0,7.3,52,0.00,,,0.00,VWS V13.00,2013-11-20 20:57:00,
2013-11-20 16:02:00,45.1,28.5,30.53,ENE,68,3.5,3.5,52,0.00,,,0.00,VWS V13.00,2013-11-20 21:02:00,
2013-11-20 16:08:00,44.9,28.8,30.53,NNE,22,5.5,5.5,53,0.00,,,0.00,VWS V13.00,2013-11-20 21:08:00,
2013-11-20 16:13:00,44.6,28.5,30.53,East,90,4.0,5.5,53,0.00,,,0.00,VWS V13.00,2013-11-20 21:13:00,
2013-11-20 16:17:00,44.4,28.4,30.53,NW,315,1.7,5.5,53,0.00,,,0.00,VWS V13.00,2013-11-20 21:17:00,
2013-11-20 16:23:00,44.2,28.6,30.53,NNE,22,4.6,4.6,54,0.00,,,0.00,VWS V13.00,2013-11-20 21:23:00,
2013-11-20 16:28:00,43.8,28.2,30.53,NNW,338,5.1,5.1,54,0.00,,,0.00,VWS V13.00,2013-11-20 21:28:00,
2013-11-20 16:33:00,43.5,28.4,30.53,WNW,292,2.0,5.1,55,0.00,,,0.00,VWS V13.00,2013-11-20 21:33:00,
2013-11-20 16:38:00,43.1,28.0,30.53,West,270,0.8,5.1,55,0.00,,,0.00,VWS V13.00,2013-11-20 21:38:00,
2013-11-20 16:43:00,42.9,27.9,30.53,ENE,68,0.0,3.5,55,0.00,,,0.00,VWS V13.00,2013-11-20 21:43:00,
2013-11-20 16:48:00,42.9,28.3,30.53,NW,315,0.0,3.5,56,0.00,,,0.00,VWS V13.00,2013-11-20 21:48:00,
2013-11-20 16:53:00,42.6,28.0,30.53,NW,315,2.2,3.5,56,0.00,,,0.00,VWS V13.00,2013-11-20 21:53:00,
2013-11-20 16:58:00,42.6,28.5,30.53,South,180,0.0,3.5,57,0.00,,,0.00,VWS V13.00,2013-11-20 21:58:00,
2013-11-20 17:03:00,42.4,28.3,30.54,NNW,338,4.6,4.6,57,0.00,,,0.00,VWS V13.00,2013-11-20 22:03:00,
2013-11-20 17:08:00,42.4,28.3,30.54,SSW,202,0.0,4.6,57,0.00,,,0.00,VWS V13.00,2013-11-20 22:08:00,
2013-11-20 17:13:00,42.0,27.9,30.54,NW,315,0.0,4.6,57,0.00,,,0.00,VWS V13.00,2013-11-20 22:13:00,
2013-11-20 17:18:00,42.0,27.9,30.54,North,0,3.5,4.6,57,0.00,,,0.00,VWS V13.00,2013-11-20 22:18:00,
2013-11-20 17:23:00,41.9,28.2,30.54,NNW,338,4.0,4.0,58,0.00,,,0.00,VWS V13.00,2013-11-20 22:23:00,
2013-11-20 17:28:00,41.9,28.6,30.54,NW,315,1.5,4.6,59,0.00,,,0.00,VWS V13.00,2013-11-20 22:28:00,
2013-11-20 17:33:00,41.7,28.4,30.55,NNW,338,0.0,4.6,59,0.00,,,0.00,VWS V13.00,2013-11-20 22:33:00,
2013-11-20 17:38:00,41.7,28.9,30.54,North,0,3.1,4.6,60,0.00,,,0.00,VWS V13.00,2013-11-20 22:38:00,
2013-11-20 17:43:00,41.5,28.7,30.54,NW,315,0.0,0.0,60,0.00,,,0.00,VWS V13.00,2013-11-20 22:43:00,
2013-11-20 17:48:00,41.5,28.7,30.55,NW,315,1.1,1.1,60,0.00,,,0.00,VWS V13.00,2013-11-20 22:48:00,
2013-11-20 17:53:00,41.5,29.1,30.55,NNE,22,2.0,2.0,61,0.00,,,0.00,VWS V13.00,2013-11-20 22:53:00,
2013-11-20 17:58:00,41.5,29.1,30.55,WNW,292,0.0,2.0,61,0.00,,,0.00,VWS V13.00,2013-11-20 22:58:00,
2013-11-20 18:03:00,41.5,29.1,30.56,North,0,2.4,2.4,61,0.00,,,0.00,VWS V13.00,2013-11-20 23:03:00,
2013-11-20 18:08:00,41.3,28.9,30.55,NNW,338,2.4,2.4,61,0.00,,,0.00,VWS V13.00,2013-11-20 23:08:00,
2013-11-20 18:13:00,41.3,29.3,30.55,NW,315,0.0,2.4,62,0.00,,,0.00,VWS V13.00,2013-11-20 23:13:00,
2013-11-20 18:18:00,41.5,29.5,30.55,NNW,338,3.1,3.1,62,0.00,,,0.00,VWS V13.00,2013-11-20 23:18:00,
2013-11-20 18:23:00,41.3,29.3,30.55,NNW,338,0.0,1.1,62,0.00,,,0.00,VWS V13.00,2013-11-20 23:23:00,
2013-11-20 18:28:00,41.3,29.7,30.55,NNW,338,2.9,2.9,63,0.00,,,0.00,VWS V13.00,2013-11-20 23:28:00,
2013-11-20 18:33:00,41.1,29.5,30.55,North,0,3.1,3.1,63,0.00,,,0.00,VWS V13.00,2013-11-20 23:33:00,
2013-11-20 18:38:00,41.1,29.9,30.56,North,0,1.1,3.1,64,0.00,,,0.00,VWS V13.00,2013-11-20 23:38:00,
2013-11-20 18:43:00,41.0,29.8,30.55,WNW,292,0.0,0.0,64,0.00,,,0.00,VWS V13.00,2013-11-20 23:43:00,
2013-11-20 18:48:00,40.8,29.6,30.55,WSW,248,0.0,0.0,64,0.00,,,0.00,VWS V13.00,2013-11-20 23:48:00,
2013-11-20 18:53:00,40.8,29.6,30.55,North,0,0.6,0.6,64,0.00,,,0.00,VWS V13.00,2013-11-20 23:53:00,
2013-11-20 18:58:00,40.8,29.6,30.55,North,0,2.6,2.6,64,0.00,,,0.00,VWS V13.00,2013-11-20 23:58:00,
2013-11-20 19:03:00,40.6,29.4,30.56,NW,315,0.0,3.5,64,0.00,,,0.00,VWS V13.00,2013-11-21 00:03:00,
2013-11-20 19:08:00,40.6,29.8,30.55,NNW,338,2.9,3.5,65,0.00,,,0.00,VWS V13.00,2013-11-21 00:08:00,
2013-11-20 19:13:00,40.6,29.8,30.56,NNW,338,0.0,3.5,65,0.00,,,0.00,VWS V13.00,2013-11-21 00:13:00,
2013-11-20 19:18:00,40.4,29.2,30.56,NW,315,0.0,3.5,64,0.00,,,0.00,VWS V13.00,2013-11-21 00:18:00,
2013-11-20 19:23:00,40.4,29.2,30.56,NW,315,0.0,1.7,64,0.00,,,0.00,VWS V13.00,2013-11-21 00:23:00,
2013-11-20 19:28:00,40.2,29.0,30.56,NW,315,1.3,1.7,64,0.00,,,0.00,VWS V13.00,2013-11-21 00:28:00,
2013-11-20 19:33:00,40.2,29.0,30.56,NNW,338,0.0,2.9,64,0.00,,,0.00,VWS V13.00,2013-11-21 00:33:00,
2013-11-20 19:38:00,40.2,29.0,30.56,North,0,0.0,2.9,64,0.00,,,0.00,VWS V13.00,2013-11-21 00:38:00,
2013-11-20 19:43:00,40.2,29.4,30.56,NNW,338,1.7,1.7,65,0.00,,,0.00,VWS V13.00,2013-11-21 00:43:00,
2013-11-20 19:48:00,40.2,29.4,30.56,North,0,1.3,2.2,65,0.00,,,0.00,VWS V13.00,2013-11-21 00:48:00,
2013-11-20 19:53:00,40.4,29.6,30.56,North,0,2.2,2.4,65,0.00,,,0.00,VWS V13.00,2013-11-21 00:53:00,
2013-11-20 19:58:00,40.4,29.6,30.56,WNW,292,0.0,2.4,65,0.00,,,0.00,VWS V13.00,2013-11-21 00:58:00,
2013-11-20 20:03:00,40.6,29.8,30.56,West,270,0.0,2.0,65,0.00,,,0.00,VWS V13.00,2013-11-21 01:03:00,
2013-11-20 20:08:00,40.6,29.8,30.56,NW,315,1.7,2.0,65,0.00,,,0.00,VWS V13.00,2013-11-21 01:08:00,
2013-11-20 20:13:00,40.8,30.0,30.56,NW,315,2.4,2.4,65,0.00,,,0.00,VWS V13.00,2013-11-21 01:13:00,
2013-11-20 20:18:00,40.8,30.0,30.56,NNW,338,3.8,3.8,65,0.00,,,0.00,VWS V13.00,2013-11-21 01:18:00,
2013-11-20 20:23:00,40.8,30.0,30.56,WNW,292,0.0,0.0,65,0.00,,,0.00,VWS V13.00,2013-11-21 01:23:00,
2013-11-20 20:28:00,41.0,30.1,30.57,NNE,22,0.0,2.2,65,0.00,,,0.00,VWS V13.00,2013-11-21 01:28:00,
2013-11-20 20:33:00,41.1,30.2,30.56,North,0,1.5,2.9,65,0.00,,,0.00,VWS V13.00,2013-11-21 01:33:00,
2013-11-20 20:38:00,41.1,30.2,30.57,NNW,338,2.2,2.9,65,0.00,,,0.00,VWS V13.00,2013-11-21 01:38:00,
2013-11-20 20:43:00,41.3,30.4,30.57,NW,315,2.4,4.4,65,0.00,,,0.00,VWS V13.00,2013-11-21 01:43:00,
2013-11-20 20:48:00,41.5,30.6,30.56,NNW,338,4.0,4.4,65,0.00,,,0.00,VWS V13.00,2013-11-21 01:48:00,
2013-11-20 20:53:00,41.7,30.8,30.57,NW,315,1.1,4.4,65,0.00,,,0.00,VWS V13.00,2013-11-21 01:53:00,
2013-11-20 20:58:00,41.7,30.8,30.56,North,0,4.4,4.9,65,0.00,,,0.00,VWS V13.00,2013-11-21 01:58:00,
2013-11-20 21:03:00,41.7,30.8,30.56,ENE,68,2.4,2.4,65,0.00,,,0.00,VWS V13.00,2013-11-21 02:03:00,
2013-11-20 21:08:00,41.7,30.8,30.56,NNW,338,4.6,4.6,65,0.00,,,0.00,VWS V13.00,2013-11-21 02:08:00,
2013-11-20 21:13:00,41.7,30.8,30.56,NNW,338,2.9,4.6,65,0.00,,,0.00,VWS V13.00,2013-11-21 02:13:00,
2013-11-20 21:18:00,41.9,31.0,30.56,NNW,338,4.0,4.6,65,0.00,,,0.00,VWS V13.00,2013-11-21 02:18:00,
2013-11-20 21:23:00,41.9,31.4,30.56,NW,315,0.0,0.0,66,0.00,,,0.00,VWS V13.00,2013-11-21 02:23:00,
2013-11-20 21:28:00,41.9,31.4,30.57,WNW,292,3.5,3.5,66,0.00,,,0.00,VWS V13.00,2013-11-21 02:28:00,
2013-11-20 21:33:00,42.0,31.5,30.57,NNW,338,2.0,3.5,66,0.00,,,0.00,VWS V13.00,2013-11-21 02:33:00,
2013-11-20 21:38:00,42.0,31.5,30.57,NW,315,2.0,3.5,66,0.00,,,0.00,VWS V13.00,2013-11-21 02:38:00,
2013-11-20 21:43:00,42.0,31.5,30.56,NNW,338,1.3,3.1,66,0.00,,,0.00,VWS V13.00,2013-11-21 02:43:00,
2013-11-20 21:48:00,42.0,31.5,30.56,North,0,0.0,4.4,66,0.00,,,0.00,VWS V13.00,2013-11-21 02:48:00,
2013-11-20 21:53:00,42.0,31.5,30.56,NNW,338,2.9,4.4,66,0.00,,,0.00,VWS V13.00,2013-11-21 02:53:00,
2013-11-20 21:58:00,42.0,31.5,30.56,SE,135,0.0,4.4,66,0.00,,,0.00,VWS V13.00,2013-11-21 02:58:00,
2013-11-20 22:03:00,42.4,31.9,30.56,West,270,0.0,1.7,66,0.00,,,0.00,VWS V13.00,2013-11-21 03:03:00,
2013-11-20 22:08:00,42.4,31.9,30.56,NW,315,0.0,1.7,66,0.00,,,0.00,VWS V13.00,2013-11-21 03:08:00,
2013-11-20 22:13:00,42.4,31.9,30.56,West,270,0.0,1.7,66,0.00,,,0.00,VWS V13.00,2013-11-21 03:13:00,
2013-11-20 22:18:00,42.6,32.0,30.56,East,90,3.3,3.3,66,0.00,,,0.00,VWS V13.00,2013-11-21 03:18:00,
2013-11-20 22:23:00,43.3,32.3,30.57,SSE,158,2.0,5.1,65,0.00,,,0.00,VWS V13.00,2013-11-21 03:23:00,
2013-11-20 22:28:00,44.0,32.6,30.56,WNW,292,4.4,5.1,64,0.00,,,0.00,VWS V13.00,2013-11-21 03:28:00,
2013-11-20 22:33:00,44.4,33.0,30.56,NE,45,4.6,8.5,64,0.00,,,0.00,VWS V13.00,2013-11-21 03:33:00,
2013-11-20 22:38:00,44.9,33.1,30.56,NE,45,1.5,8.5,63,0.00,,,0.00,VWS V13.00,2013-11-21 03:38:00,
2013-11-20 22:43:00,45.1,32.9,30.56,SSE,158,0.8,4.0,62,0.00,,,0.00,VWS V13.00,2013-11-21 03:43:00,
2013-11-20 22:48:00,45.3,33.1,30.56,SE,135,2.0,4.0,62,0.00,,,0.00,VWS V13.00,2013-11-21 03:48:00,
2013-11-20 22:53:00,45.5,32.8,30.56,SSE,158,0.8,4.0,61,0.00,,,0.00,VWS V13.00,2013-11-21 03:53:00,
2013-11-20 22:58:00,45.5,32.8,30.56,East,90,4.4,4.4,61,0.00,,,0.00,VWS V13.00,2013-11-21 03:58:00,
2013-11-20 23:03:00,45.6,33.3,30.56,ESE,112,3.5,3.5,62,0.00,,,0.00,VWS V13.00,2013-11-21 04:03:00,
2013-11-20 23:08:00,45.6,32.9,30.56,NNE,22,6.2,6.2,61,0.00,,,0.00,VWS V13.00,2013-11-21 04:08:00,
2013-11-20 23:13:00,46.0,33.3,30.56,North,0,5.8,8.2,61,0.00,,,0.00,VWS V13.00,2013-11-21 04:13:00,
2013-11-20 23:18:00,46.0,33.3,30.56,WSW,248,2.0,8.2,61,0.00,,,0.00,VWS V13.00,2013-11-21 04:18:00,
2013-11-20 23:23:00,46.0,33.3,30.56,NNE,22,6.7,6.7,61,0.00,,,0.00,VWS V13.00,2013-11-21 04:23:00,
2013-11-20 23:28:00,46.2,33.5,30.56,ESE,112,6.2,6.7,61,0.00,,,0.00,VWS V13.00,2013-11-21 04:28:00,
2013-11-20 23:33:00,46.2,33.9,30.57,SE,135,1.5,6.7,62,0.00,,,0.00,VWS V13.00,2013-11-21 04:33:00,
2013-11-20 23:38:00,46.2,33.9,30.56,East,90,2.0,6.7,62,0.00,,,0.00,VWS V13.00,2013-11-21 04:38:00,
2013-11-20 23:43:00,46.2,33.5,30.56,SE,135,4.4,4.4,61,0.00,,,0.00,VWS V13.00,2013-11-21 04:43:00,
2013-11-20 23:48:00,46.2,33.1,30.56,NNE,22,5.3,6.4,60,0.00,,,0.00,VWS V13.00,2013-11-21 04:48:00,
2013-11-20 23:53:00,46.2,33.1,30.56,SSE,158,3.5,6.4,60,0.00,,,0.00,VWS V13.00,2013-11-21 04:53:00,
2013-11-20 23:58:00,46.4,33.3,30.56,WNW,292,0.0,6.4,60,0.00,,,0.00,VWS V13.00,2013-11-21 04:58:00,